OK1FET-15 Weather Reports


time (UTC)temp
F
wind
direction
speed
knots
gust
knots
rain 1hr
in
rain 24hr
in
rain mn
in
humidity
%
barometer
mb
20260504182423 66 38 0.0 0.0 0.00 0.00 0.00 41 1010.7
20260504181859 66 7 0.0 0.0 0.00 0.00 0.00 40 1010.7
20260504181334 66 327 0.0 0.0 0.00 0.00 0.00 39 1010.7
20260504180809 67 293 0.0 0.0 0.00 0.00 0.00 39 1010.6
20260504180243 67 270 0.0 0.0 0.00 0.00 0.00 37 1010.6
20260504175736 68 229 0.0 0.0 0.00 0.00 0.00 37 1010.6
20260504175228 68 225 0.0 0.0 0.00 0.00 0.00 36 1010.5
20260504174720 69 225 0.0 0.0 0.00 0.00 0.00 36 1010.5
20260504174212 69 225 0.0 0.0 0.00 0.00 0.00 36 1010.4
20260504173704 70 225 0.0 0.0 0.00 0.00 0.00 36 1010.4
20260504173157 70 225 0.0 0.0 0.00 0.00 0.00 36 1010.4
20260504172649 71 225 0.0 0.0 0.00 0.00 0.00 36 1010.5
20260504172141 71 225 0.0 0.0 0.00 0.00 0.00 35 1010.6
20260504171633 72 225 0.0 0.0 0.00 0.00 0.00 34 1010.6
20260504171125 72 225 0.0 0.0 0.00 0.00 0.00 34 1010.6
20260504170617 73 225 0.0 0.0 0.00 0.00 0.00 34 1010.6
20260504170109 73 181 0.0 0.0 0.00 0.00 0.00 34 1010.7
20260504160441 77 110 0.0 0.0 0.00 0.00 0.00 30 1011.0
20260504150809 85 182 0.0 0.9 0.00 0.00 0.00 25 1011.4
20260504150300 85 91 0.0 0.0 0.00 0.00 0.00 25 1011.4
20260504141133 88 119 0.0 0.0 0.00 0.00 0.00 24 1011.6
20260504140625 86 180 0.0 0.0 0.00 0.00 0.00 24 1011.7
20260504140116 86 232 0.0 0.0 0.00 0.00 0.00 24 1011.8
20260504130442 82 105 0.0 0.0 0.00 0.00 0.00 26 1012.3
20260504120257 91 188 0.0 0.0 0.00 0.00 0.00 21 1012.6
20260504110618 89 62 0.0 0.0 0.00 0.00 0.00 22 1013.2
20260504110110 88 220 0.0 0.9 0.00 0.00 0.00 24 1013.2
20260504100432 86 164 0.9 2.6 0.00 0.00 0.00 27 1013.9
20260504081636 75 37 0.0 1.7 0.00 0.00 0.00 39 1014.1
20260504081128 75 77 0.0 0.0 0.00 0.00 0.00 39 1014.1
20260504080619 75 122 0.0 1.7 0.00 0.00 0.00 40 1014.1
20260504080111 75 111 0.0 0.0 0.00 0.00 0.00 40 1014.1
20260504050419 54 225 0.0 0.0 0.00 0.00 0.00 73 1013.5
20260504045855 54 153 0.0 0.0 0.00 0.00 0.00 72 1013.5
20260504045330 53 131 0.0 0.0 0.00 0.00 0.00 72 1013.4
20260504030853 49 328 0.0 0.0 0.00 0.00 0.00 73 1013.2
20260504030329 49 315 0.0 0.0 0.00 0.00 0.00 72 1013.2
20260504025805 49 315 0.0 0.0 0.00 0.00 0.00 69 1013.1
20260504025240 50 301 0.0 0.0 0.00 0.00 0.00 68 1013.0
20260504024716 50 267 0.0 0.0 0.00 0.00 0.00 69 1013.1
20260504024151 50 101 0.0 0.0 0.00 0.00 0.00 71 1013.1
20260504023644 50 276 0.0 0.0 0.00 0.00 0.00 68 1013.0
20260504023137 51 197 0.0 0.0 0.00 0.00 0.00 72 1013.2
20260504022630 51 187 0.0 0.0 0.00 0.00 0.00 66 1013.1
20260504022123 51 225 0.0 0.0 0.00 0.00 0.00 69 1013.4
20260504021616 51 225 0.0 0.0 0.00 0.00 0.00 66 1013.4
20260504021109 51 225 0.0 0.0 0.00 0.00 0.00 70 1013.2
20260504020602 51 225 0.0 0.0 0.00 0.00 0.00 66 1013.0
20260504020054 51 225 0.0 0.0 0.00 0.00 0.00 67 1013.0
20260504015547 51 172 0.0 0.0 0.00 0.00 0.00 68 1012.8
20260504015040 52 45 0.0 0.0 0.00 0.00 0.00 64 1012.7
20260504014533 52 45 0.0 0.0 0.00 0.00 0.00 63 1012.6
20260504014026 52 45 0.0 0.0 0.00 0.00 0.00 64 1012.7
20260504013519 52 45 0.0 0.0 0.00 0.00 0.00 63 1012.6
20260504013012 52 46 0.0 0.0 0.00 0.00 0.00 63 1012.5
20260504012505 52 139 0.0 0.0 0.00 0.00 0.00 62 1012.6
20260504011957 52 158 0.0 0.0 0.00 0.00 0.00 64 1012.6
20260504011450 52 135 0.0 0.0 0.00 0.00 0.00 63 1012.5
20260504010943 52 135 0.0 0.0 0.00 0.00 0.00 64 1012.4
20260504010436 53 135 0.0 0.0 0.00 0.00 0.00 63 1012.4
20260504005929 53 153 0.0 0.0 0.00 0.00 0.00 62 1012.4
20260504005422 53 135 0.0 0.0 0.00 0.00 0.00 62 1012.3
20260504004914 53 97 0.0 0.0 0.00 0.00 0.00 61 1012.4
20260504004407 53 89 0.0 0.0 0.00 0.00 0.00 61 1012.4
20260504003900 53 135 0.0 0.0 0.00 0.00 0.00 62 1012.4
20260504003353 53 123 0.0 0.0 0.00 0.00 0.00 61 1012.5
20260504002846 53 135 0.0 0.0 0.00 0.00 0.00 61 1012.5
20260504002339 53 135 0.0 0.0 0.00 0.00 0.00 60 1012.4
20260504001831 53 135 0.0 0.0 0.00 0.00 0.00 59 1012.4
20260504001324 53 136 0.0 0.0 0.00 0.00 0.00 59 1012.5
20260504000817 53 96 0.0 0.0 0.00 0.00 0.00 59 1012.5
20260504000310 53 61 0.0 0.0 0.00 0.00 0.00 58 1012.5
20260503235803 54 45 0.0 0.0 0.00 0.00 0.00 58 1012.5
20260503235256 54 45 0.0 0.0 0.00 0.00 0.00 58 1012.5
20260503234748 54 45 0.0 0.0 0.00 0.00 0.00 58 1012.5
20260503234241 54 45 0.0 0.0 0.00 0.00 0.00 57 1012.5
20260503233734 54 45 0.0 0.0 0.00 0.00 0.00 57 1012.6
20260503233227 54 48 0.0 0.0 0.00 0.00 0.00 58 1012.7
20260503232720 54 45 0.0 0.0 0.00 0.00 0.00 58 1012.6
20260503232212 54 45 0.0 0.0 0.00 0.00 0.00 58 1012.6
20260503231705 54 45 0.0 0.0 0.00 0.00 0.00 58 1012.6
20260503231158 54 66 0.0 0.0 0.00 0.00 0.00 58 1012.6
20260503230651 54 45 0.0 0.0 0.00 0.00 0.00 58 1012.5
20260503230144 54 51 0.0 0.0 0.00 0.00 0.00 57 1012.5
20260503225637 54 60 0.0 0.0 0.00 0.00 0.00 57 1012.5
20260503225129 54 54 0.0 0.0 0.00 0.00 0.00 58 1012.5
20260503224622 54 68 0.0 0.0 0.00 0.00 0.00 57 1012.5
20260503224115 54 74 0.0 0.0 0.00 0.00 0.00 57 1012.5
20260503223608 55 93 0.0 0.0 0.00 0.00 0.00 57 1012.5
20260503223101 55 90 0.0 0.0 0.00 0.00 0.00 57 1012.5
20260503222553 55 104 0.0 0.0 0.00 0.00 0.00 57 1012.5
20260503222046 55 93 0.0 0.0 0.00 0.00 0.00 56 1012.5
20260503221539 55 90 0.0 0.0 0.00 0.00 0.00 56 1012.5
20260503221032 55 90 0.0 0.0 0.00 0.00 0.00 56 1012.5
20260503220525 55 96 0.0 0.0 0.00 0.00 0.00 56 1012.5
20260503220017 55 90 0.0 0.0 0.00 0.00 0.00 56 1012.5
20260503215510 55 93 0.0 0.0 0.00 0.00 0.00 56 1012.5
20260503215003 56 90 0.0 0.0 0.00 0.00 0.00 55 1012.5
20260503214456 56 87 0.0 0.0 0.00 0.00 0.00 54 1012.5
20260503213948 56 85 0.0 0.0 0.00 0.00 0.00 53 1012.5
20260503213441 56 88 0.0 0.0 0.00 0.00 0.00 53 1012.6
20260503212934 57 71 0.0 0.0 0.00 0.00 0.00 52 1012.6
20260503212427 57 81 0.0 0.0 0.00 0.00 0.00 52 1012.5
20260503211919 57 67 0.0 0.0 0.00 0.00 0.00 52 1012.5
20260503211412 57 87 0.0 0.0 0.00 0.00 0.00 51 1012.5
20260503210905 58 76 0.0 0.0 0.00 0.00 0.00 51 1012.5
20260503210357 58 63 0.0 0.0 0.00 0.00 0.00 50 1012.5
20260503205850 58 81 0.0 0.0 0.00 0.00 0.00 50 1012.5
20260503205343 58 81 0.0 0.0 0.00 0.00 0.00 50 1012.5
20260503204835 58 77 0.0 0.0 0.00 0.00 0.00 49 1012.6
20260503204328 58 73 0.0 0.0 0.00 0.00 0.00 48 1012.6
20260503203821 59 46 0.0 0.0 0.00 0.00 0.00 48 1012.7
20260503203313 59 57 0.0 0.0 0.00 0.00 0.00 48 1012.7
20260503202806 59 80 0.0 0.0 0.00 0.00 0.00 47 1012.7
20260503202258 59 76 0.0 0.9 0.00 0.00 0.00 47 1012.8
20260503201751 60 55 0.0 0.0 0.00 0.00 0.00 46 1012.7
20260503201244 60 107 0.0 0.0 0.00 0.00 0.00 46 1012.8
20260503200736 60 66 0.0 0.0 0.00 0.00 0.00 46 1012.8
20260503200229 60 99 0.0 0.0 0.00 0.00 0.00 46 1012.8
20260503195721 60 130 0.0 0.0 0.00 0.00 0.00 46 1012.9
20260503195214 60 108 0.0 1.7 0.00 0.00 0.00 46 1012.9
20260503194707 61 71 0.0 0.0 0.00 0.00 0.00 45 1012.9
20260503194159 61 73 0.0 0.0 0.00 0.00 0.00 45 1012.9
20260503193652 61 88 0.9 1.7 0.00 0.00 0.00 45 1012.8
20260503193144 61 38 0.0 0.0 0.00 0.00 0.00 44 1012.8
20260503192637 61 80 0.0 0.9 0.00 0.00 0.00 43 1012.7
20260503192129 62 94 0.0 0.9 0.00 0.00 0.00 43 1012.7
20260503191622 62 66 0.9 2.6 0.00 0.00 0.00 43 1012.6
20260503191114 62 83 0.0 1.7 0.00 0.00 0.00 42 1012.6
20260503190607 62 72 0.9 2.6 0.00 0.00 0.00 42 1012.6
20260503190100 62 56 0.0 0.0 0.00 0.00 0.00 41 1012.5
20260503185552 62 86 0.0 0.0 0.00 0.00 0.00 40 1012.4
20260503185045 63 77 0.0 0.0 0.00 0.00 0.00 40 1012.4
20260503184537 63 63 0.0 1.7 0.00 0.00 0.00 39 1012.4
20260503184029 63 69 0.0 0.0 0.00 0.00 0.00 39 1012.3